STARLINK-32302, 61621

Orbit data source: Space-Track

STARLINK-32302, 61621 is a payload satellite owned by SpaceX/Seattle (US) in LEO that was launched on Wed, 23 Oct 2024 UTC via an FALCON 9 launch vehicle from the Air Force Eastern Test Range (AFETR). Payload-class satellites include a variety of spacecraft equipped with specific instruments for various scientific and technological missions. These include communications satellites like Starlink; space stations such as the ISS; scientific satellites like the Hubble; Earth observation satellites from companies like Planet Labs, Umbra, and HawkEye 360; GPS; miniature CubeSats for education and research; and military/defense satellites.

Loading next visibility...
Identifier
61621, 2024-191A
Orbit
LEO
Country
Flag of USUS
Related business
Manufacturer
SpaceX/Seattle
Mission
Operational Commercial Communications
Bus & Motor
STARLINK V2M, Unknown motor
Mass
730 kg wet, ~700 kg dry
Launch date (UTC)
2024-10-23 (2 years ago)
Launch vehicle
FALCON 9
Launch site
Air Force Eastern Test Range (AFETR)
Object type
Payload
Rocket body
Debris
Shape & HBR
Box + 2 Pan, 17.7 m
Radar Cross Section
33.884 m², Large (>1 m²)

Expand to show TLE details & history
Last TLE update: 10 hours ago

TLE from 10 hours ago
0 STARLINK-32302
1 61621U 24191A   26237.15273315  .00000045  00000-0  11139-4 0  9998
2 61621  43.0005 282.8571 0001070 287.3911  72.6824 15.27578889104051
Epoch: 2026-08-25T03:39Z
TLE epoch observation values (Epoch: 2026-08-25T03:39:56.144Z)
Latitude
0.00002°
Longitude
-105.55099°
Altitude
482.609 km
Speed
7.626 km/s
True Right ascension
18h 51m 25s
True Declination
0° 00' 00"
Sunlit
Object was in full shadow at epoch
Visualization orbit readout
Latitude
Unknown
Longitude
Unknown
Altitude
Unknown
Speed
Unknown
Apparent Right ascension
Unknown
Apparent Declination
Unknown
Sunlit
N/A
Visualization observer readout
Local Sidereal Time
05:12:31
Azimuth
Unknown
Elevation
Unknown
Doppler factor
Unknown
Orbital elements
Apogee altitude
485.732 km
Perigee altitude
484.263 km
Semi-major axis
6,863.135 km
Eccentricity
0.00011
Inclination
43.0005°
RAAN
282.8571°
Arg. of periapsis
287.3911°
True anomaly
72.69411°
Mean anomaly
72.6824°
Eccentric anomaly
72.68825°
Mean motion
3.81733 °/min
Orbital period
94.31 mins
BSTAR
0.000011139
Loading maneuver chart data...
Computing Atmospheric mass density...
Loading historical data...
Loading historical data...
Loading historical data...
Loading historical data...
Loading historical data...
Loading historical data...
Loading historical data...

Documentation

Showing up to 5 results
|